軌道要素
Epoch 2012 Aug. 21.0 TT = JDT 2456160.5
T 2012 Aug. 25.83751 TT MPC
q 1.7647370 (2000.0) P Q
n 0.00618621 Peri. 235.68679 +0.50513669 -0.30948552
a 29.3891099 Node 122.70945 -0.00245405 +0.93297265
e 0.9399527 Incl. 73.23078 -0.86303586 -0.18379543
P 159
From 147 observations 2012 Dec. 30-2013 Apr. 22, mean residual 0".4.
|